Location: Bacea
(45.9500°N, 22.6667°E)
Time: 22:51:02
(UTC+00:00)

CZ-4B R/B - Pass Details

Date: 16 October 2021
Orbit: 808 x 882 km, 99.1° (Epoch: 26 November)

Event Time Altitude Azimuth Distance (km) Brightness Sun altitude
Rises 16:50:48 0° 175° (S) 3,445 6.3 -12.8°
Reaches altitude 10° 16:53:12 10° 179° (S) 2,519 5.7 -13.2°
Maximum altitude 16:58:44 59° 258° (WSW) 1,017 4.0 -14.2°
Drops below altitude 10° 17:04:21 10° 338° (NNW) 2,552 6.0 -15.2°
Sets 17:06:48 0° 342° (NNW) 3,494 6.7 -15.6°
